{"data":{"norad_id":59938,"intl_designator":"2024-106S","name":"STARLINK-31876","alt_names":[],"object_type":"PAYLOAD","status":"ACTIVE","operator":null,"country":"US","launch_date":"2024-06-01","launch_site_code":"AFETR","launch_vehicle":null,"mission":null,"orbit_class":"UNKNOWN","rcs_meters":null,"size_class":null,"mass_kg":null,"dimensions":null,"purposes":["comms"],"wikipedia_slug":null,"has_3d_model":false,"image_url":null,"decayed_at":null,"tle_current":{"epoch":"2026-05-24T17:35:39.562656Z","epoch_age_seconds":94290,"freshness":"FRESH","line1":"1 59938U 24106S   26144.73309679  .00000366  00000+0  22811-4 0  9990","line2":"2 59938  43.0017 262.9868 0000948 256.8115 103.2631 15.27562813112168","mean_motion":15.27562813,"eccentricity":9.48e-5,"inclination_deg":43.0017,"raan_deg":262.9868,"arg_perigee_deg":256.8115,"mean_anomaly_deg":103.2631,"bstar":2.2811e-5,"rev_number":11216,"period_min":94.267809332957,"perigee_km":482.45011526243,"apogee_km":483.75100590392,"semimajor_km":6861.2375605832,"source":"CELESTRAK","updated_at":"2026-05-25T13:38:19.124962Z"}}}